Погода Маресале

Погода Маресале : погода сейчас, прогноз погоды и архив. Всё, что Вы хотите узнать о погоде Маресале!

Хотите узнать прогноз погоды Маресале? Тогда Вам сюда: Погода Маресале

Поиск расширенной информации на нашем сайте:

Другие новости

Новости СМИ2

Главная страница сайта

Новости сайта

03.07.2017

Напоминаем, что на нашем специализированном сайте Метеоцентр.Азия вы можете получить высокодетализированные автоматические прогнозы погоды по пунктам России, СНГ и мира в авиационном формате (включающие направление и скорость ветра, видимость, явления погоды, количество и форму облачности, нижнюю и верхнюю границу облачности).


Погода Маресале - сегодня

Время (UTC), дата Ветер
(°,м/с) 
Видим.   Явления Облачность Т
(°С)
Тd
(°С)
f(%) Тe
(°С)
Pmin
(гПа)
dP
(гПа)
Po
(мм)
O2
(г/м3)
Тmin Tmax R s Состояние
почвы
09 15.09.17 130 (ЮВ) 2000 м  дымка  3/3 200 м 
[St]
+2.2 +2 99 1009.4  -0.4  755  301           
12 15.09.17 110 (В) 20000 м    1/1 600 м 
[Sc]
+4.5 -0.7 69 +3  1009.8  0.4  755  299           
15 15.09.17 100 (В) 20000 м    1/1 600 м 
[Sc]
+1.5 -0.8 85 -1  1010.3  0.5  755  303    +4.6       
18 15.09.17 080 (В) 4000 м  дымка  1/1 600 м 
[Sc]
+0.1 -0.5 96 -2  1010.8  0.5  756  304           
21 15.09.17 070 (В) 10 км    ясно 
-1.2 -2 94 -3  1011.1  -0.3  756  306           
00 16.09.17 100 (В) н/о    н/о 
-1.1 -1.2 99 -4  1011.4  0.3  756  306           
03 16.09.17 100 (В) 4000 м  дымка  ясно 
+0.6 +0.6 100 -2  1011.4  756  304  -1.7        замёрзшая 
18 16.09.17 110 (В) 10-14{14}  10 км    ясно 
+2.8 +1.3 90 -1  1006.6  -1.4  753  300           
21 16.09.17 110 (В) 10-14{14}  10 км    ясно 
+1.9 +0.9 93 -3  1005.1  -1.5  752  301           
03 17.09.17 100 (В) 10 км    3/3 600 м средняя 
[Sc|Ac trans]
+1 +0.2 94 -3  1004.5  -0.4  751  301  +0.1         
18 17.09.17 060 (СВ) 4000 м  дымка  1/1 600 м 
[Sc]
+2.3 +1.9 97 -1  1006.6  0.4  753  300           
21 17.09.17 060 (СВ) 4000 м  дымка  3/3 600 м 
[Sc]
+2.9 +2.7 99 1007  0.5  753  300           
00 18.09.17 030 (СВ) 4000 м  дымка  6/6 600 м 
[Sc]
+2.7 +2.7 100 1008.4  1.2  754  300           
06 18.09.17 050 (СВ) 10 км    10/10 210 м 
[St]
+5.4 +4.4 93 +3  1010.8  1.3  756  298           
18 18.09.17 030 (СВ) 4000 м  дымка  10/10 630 м 
[St]
+3.6 +3.4 99 +1  1017  1.4  760  302           
21 18.09.17 030 (СВ) 2000 м  дымка  10/10 600 м 
[Sc]
+1.8 +1.8 100 -1  1018  0.9  761  304           
00 19.09.17 040 (СВ) 2000 м  дымка  10/10 210 м 
[St]
+3.1 +3.1 100 1019.5  1.5  762  303           
03 19.09.17 000 (С) 31-10{11}  2000 м    10/10 120 м 
[Sc]
+2.5 +2.7 100 -5  1081  1.2  759  303  +1.5        влажная 
06 19.09.17 050 (СВ) 9-11{12}  2000 м  дымка  10/10 120 м 
[St]
+3.1 +3 99 -1  1022.6  1.6  765  304           
09 19.09.17 050 (СВ) 7{11}  10 км    ясно 
+7.2 +2.5 72 +5  1023.4  0.8  765  300           
12 19.09.17 350 (С) 20000 м    ясно 
+6.2 +2.6 78 +4  1024.3  0.9  766  301           
15 19.09.17 360 (С) 4000 м  дымка  ясно 
+1 +0.5 96 -2  1025.2  0.9  767  308    +7.8       
18 19.09.17 030 (СВ) 4000 м  дымка  ясно 
-1.6 -1.8 99 -4  1025.8  0.5  767  311           
21 19.09.17 010 (С) 4000 м  дымка  10/10 360 м 
[Sc]
-0.7 -0.7 100 -3  1025.5  -0.2  767  310           
00 20.09.17 040 (СВ) 4000 м  дымка  10/10 330 м 
[St]
-0.5 -0.8 98 -2  1025.4  -0.2  767  310           
Время (UTC), дата Ветер
(°,м/с) 
Видим.   Явления Облачность Т
(°С)
Тd
(°С)
f(%) Тe
(°С)
Pmin
(гПа)
dP
(гПа)
Po
(мм)
O2
(г/м3)
Тmin Tmax R s Состояние
почвы

Для получения пояснительной информации подведите курсор к названию столбца.

ПОГОДА Маресале - архив

Всё, что Вы хотите узнать о погоде Маресале - удобно и подробно!

Выберите нужную дату (начиная с 1 января 2015* года) и нажмите кнопку "Найти".
Будут отображены архивные сводки погоды по пункту Маресале, начиная с указанной даты.


Отображать данные в формате CSV (для использования в таблицах Excel)


Внимание! Наш архив погоды предназначен исключительно для личного некоммерческого использования в познавательных целях. Если Вам необходимы официальные справки о состоянии погоды (для производственных, юридических, коммерческих и т.п. целей), обращайтесь в органы Росгидромета.

*Примечание: данная дата относится к архиву по метеостанциям СССР (Россия, СНГ, Балтия).
Архив по метеостанциям Зарубежной Европы и Азии (кроме Китая) хранится 10 дней, по другим регионам земного шара (Китай, Африка, Америка, Австралия, Океания) - 1 день.

Маресале - район местоположения метеостанции


Название, широта, долгота, высота метеостанции:
Маресале 69.7°ш. 66.8°д. 25 м над ур. моря [Российская Федерация]

Дополнительная информация

В oтличие oт бoльшинства пoгoдных сайтoв мы публикуем пoдрoбную метеoинфoрмацию в детальнoм прoфессиoнальнoм фoрмате.

Характеристики температуры и влажнoсти вoздуха измеряются на высoте 2 м в тени вдали oт зданий и деревьев.
Скoрoсть ветра измеряется на высoте 10 м (на урoвне рoста челoвека скoрoсть ветра ниже в 1.5-2 раза). Если метеoстанция нахoдится в гoрoде или в лесу, тo скoрoсть ветра занижена на 2-4 м/с пo сравнению с oткрытым местoм. Скoрoсть ветра над акватoриями крупных рек и oзёр, а также на вершинах хoлмoв на 2-5 м/с выше, чем в oбычных услoвиях.
Атмoсфернoе давление в разных тoчках местнoсти мoжет значительнo oтличаться oт давления на метеoстанции, в зависимoсти oт услoвий рельефа (при пoдъёме на 10 м давление пoнижается примернo на 1 мм рт.ст.).